Precipitable_Water
1.03 1.00 0.91 0.89 0.91 0.92 0.89 0.96 1.07 1.09 0.92 0.94 1.02 1.03 1.08 1.15 1.29 1.35 1.36 1.32 1.18 1.12 1.14 1.21 1.14 1.18 1.18 1.18 1.23 1.22 1.21 1.18 1.06 1.17 1.33 1.45 1.40 1.39 1.41 1.49 1.45 1.45 1.46
0.93 0.85 0.83 0.84 0.82 0.83 0.93 1.07 1.15 1.01 0.96 1.03 1.02 1.02 1.09 1.26 1.36 1.35 1.37 1.35 1.23 1.19 1.14 1.19 1.20 1.20 1.16 1.21 1.27 1.26 1.26 1.26 1.19 1.11 1.27 1.32 1.37 1.45 1.47 1.42 1.44 1.55 1.56
0.76 0.75 0.77 0.80 0.90 0.99 1.08 1.15 1.07 0.95 0.99 1.05 1.01 1.07 1.26 1.32 1.35 1.43 1.42 1.37 1.27 1.26 1.21 1.20 1.23 1.23 1.16 1.23 1.29 1.30 1.30 1.28 1.27 1.21 1.20 1.36 1.36 1.43 1.43 1.47 1.49 1.38 1.42
0.73 0.79 0.87 0.94 1.01 1.08 1.11 1.08 0.92 0.93 1.02 1.02 1.07 1.21 1.31 1.36 1.44 1.47 1.42 1.41 1.30 1.29 1.34 1.28 1.26 1.28 1.26 1.28 1.28 1.29 1.28 1.22 1.24 1.21 1.24 1.25 1.33 1.37 1.44 1.30 1.24 1.34 1.31
0.82 0.89 0.93 1.02 1.02 1.01 1.07 0.99 0.88 0.99 1.04 1.07 1.17 1.25 1.30 1.35 1.40 1.43 1.39 1.37 1.36 1.28 1.35 1.34 1.35 1.37 1.40 1.38 1.32 1.28 1.24 1.22 1.23 1.20 1.17 1.23 1.26 1.27 1.26 1.31 1.24 1.28 1.33
0.94 0.92 1.03 1.08 1.05 1.01 1.02 0.93 0.92 1.01 1.04 1.16 1.18 1.20 1.23 1.39 1.43 1.46 1.43 1.38 1.41 1.36 1.32 1.38 1.41 1.41 1.40 1.37 1.34 1.32 1.32 1.27 1.23 1.19 1.15 1.10 1.20 1.27 1.31 1.27 1.23 1.21 1.14
0.97 1.04 1.09 1.07 1.00 1.00 0.97 0.95 0.98 1.01 1.09 1.16 1.15 1.16 1.18 1.28 1.43 1.47 1.45 1.42 1.43 1.40 1.41 1.43 1.41 1.42 1.41 1.36 1.34 1.33 1.34 1.36 1.34 1.27 1.22 1.24 1.26 1.30 1.30 1.24 1.24 1.20 1.19
1.03 1.05 1.10 1.06 1.04 1.09 1.07 1.02 1.03 1.07 1.06 1.11 1.07 1.10 1.15 1.23 1.36 1.43 1.46 1.43 1.43 1.45 1.46 1.46 1.43 1.42 1.43 1.40 1.37 1.30 1.33 1.36 1.38 1.39 1.36 1.34 1.34 1.35 1.32 1.29 1.28 1.28 1.28
0.96 1.04 1.03 1.02 1.03 1.09 1.08 1.10 1.10 1.07 1.06 1.05 1.06 1.08 1.11 1.20 1.33 1.40 1.47 1.42 1.43 1.43 1.47 1.48 1.46 1.40 1.41 1.41 1.35 1.30 1.31 1.35 1.43 1.41 1.40 1.39 1.38 1.38 1.39 1.32 1.19 1.09 0.81
0.95 1.00 0.96 0.97 1.00 1.08 1.18 1.23 1.26 1.15 1.09 1.05 1.09 1.11 1.10 1.16 1.32 1.41 1.46 1.43 1.38 1.40 1.43 1.45 1.42 1.37 1.38 1.36 1.31 1.29 1.22 1.28 1.32 1.34 1.37 1.37 1.39 1.39 1.33 1.20 1.04 0.71 0.54
0.99 0.93 0.94 1.01 1.03 1.10 1.18 1.27 1.30 1.28 1.21 1.16 1.13 1.11 1.13 1.23 1.32 1.40 1.45 1.43 1.41 1.40 1.37 1.36 1.38 1.35 1.32 1.31 1.29 1.27 1.26 1.32 1.31 1.29 1.30 1.29 1.28 1.24 1.18 1.10 0.96 0.74 0.56
0.94 0.87 0.96 1.03 1.05 1.12 1.16 1.21 1.28 1.29 1.24 1.19 1.15 1.13 1.14 1.23 1.31 1.40 1.42 1.46 1.45 1.39 1.36 1.37 1.37 1.35 1.33 1.31 1.29 1.28 1.30 1.29 1.25 1.23 1.21 1.15 1.07 1.01 0.97 0.89 0.80 0.77 0.76
0.85 0.83 0.91 0.98 0.96 1.02 1.09 1.14 1.19 1.22 1.17 1.15 1.13 1.11 1.03 1.17 1.27 1.35 1.39 1.38 1.44 1.43 1.42 1.39 1.37 1.36 1.34 1.32 1.32 1.29 1.30 1.24 1.18 1.11 1.02 0.93 0.84 0.76 0.74 0.74 0.76 0.81 0.82
0.81 0.81 0.86 0.92 0.90 0.94 0.94 1.15 1.17 1.11 1.10 1.13 1.12 1.03 0.97 1.11 1.25 1.32 1.34 1.36 1.39 1.43 1.43 1.41 1.39 1.38 1.36 1.35 1.33 1.30 1.27 1.19 1.09 0.98 0.92 0.83 0.81 0.75 0.74 0.86 0.86 0.89 0.86
0.77 0.79 0.80 0.87 0.87 0.81 0.81 1.07 1.19 1.16 1.13 1.04 1.06 1.06 1.03 1.10 1.26 1.33 1.32 1.32 1.34 1.38 1.39 1.38 1.34 1.31 1.27 1.27 1.26 1.23 1.17 1.13 1.03 0.98 0.89 0.79 0.76 0.80 0.79 0.89 0.92 0.95 0.87
0.70 0.73 0.74 0.77 0.81 0.77 0.69 0.81 1.10 1.15 1.22 1.26 1.26 1.21 1.23 1.30 1.35 1.34 1.34 1.29 1.23 1.25 1.23 1.19 1.20 1.20 1.17 1.15 1.11 1.10 1.09 1.03 1.00 0.96 0.90 0.85 0.79 0.78 0.80 0.87 0.89 0.87 0.83
0.64 0.71 0.74 0.76 0.76 0.74 0.68 0.60 0.71 0.91 1.08 1.15 1.16 1.19 1.17 1.21 1.25 1.25 1.25 1.21 1.15 1.06 0.97 1.02 1.05 1.07 1.06 1.05 1.03 1.01 0.98 1.00 1.01 0.95 0.91 0.87 0.87 0.87 0.85 0.84 0.83 0.84 0.83
0.65 0.69 0.73 0.73 0.74 0.75 0.70 0.61 0.63 0.65 0.73 0.82 1.03 1.07 1.08 1.04 1.09 1.09 1.09 1.08 0.98 0.95 0.87 0.82 0.85 0.93 0.97 0.96 0.96 0.96 0.97 0.98 0.97 0.95 0.92 0.89 0.85 0.81 0.79 0.80 0.85 0.84 0.82
0.62 0.65 0.72 0.74 0.75 0.75 0.73 0.67 0.60 0.60 0.62 0.65 0.82 0.91 0.96 0.95 0.96 0.99 1.00 0.92 0.88 0.86 0.84 0.77 0.75 0.79 0.84 0.92 0.96 0.97 0.96 0.93 0.91 0.88 0.86 0.83 0.82 0.80 0.77 0.78 0.81 0.81 0.83
0.63 0.62 0.64 0.70 0.72 0.72 0.72 0.67 0.64 0.61 0.58 0.59 0.60 0.66 0.76 0.82 0.78 0.78 0.85 0.87 0.83 0.83 0.85 0.85 0.83 0.75 0.72 0.79 0.80 0.83 0.85 0.85 0.84 0.84 0.84 0.87 0.90 0.93 0.90 0.91 0.92 0.90 0.90
0.69 0.67 0.63 0.64 0.65 0.67 0.66 0.63 0.62 0.63 0.61 0.61 0.63 0.70 0.71 0.66 0.61 0.62 0.65 0.72 0.75 0.77 0.77 0.79 0.83 0.84 0.82 0.72 0.72 0.76 0.73 0.74 0.79 0.84 0.89 0.95 1.00 0.99 1.01 1.00 0.99 0.99 0.97
0.78 0.75 0.77 0.76 0.78 0.79 0.80 0.78 0.68 0.62 0.62 0.63 0.65 0.69 0.74 0.75 0.75 0.72 0.69 0.64 0.63 0.67 0.76 0.78 0.77 0.79 0.83 0.86 0.83 0.76 0.77 0.79 0.82 0.85 0.87 0.87 0.87 0.87 0.86 0.87 0.89 0.90 0.90
0.99 0.95 0.87 0.86 0.87 0.88 0.88 0.87 0.85 0.83 0.76 0.70 0.67 0.65 0.67 0.69 0.73 0.75 0.74 0.75 0.73 0.67 0.65 0.64 0.67 0.74 0.79 0.80 0.81 0.82 0.78 0.74 0.76 0.82 0.82 0.83 0.84 0.86 0.88 0.87 0.88 0.89 0.90
1.11 1.06 1.01 0.98 0.91 0.87 0.86 0.85 0.86 0.86 0.86 0.86 0.82 0.76 0.71 0.68 0.67 0.67 0.69 0.73 0.75 0.75 0.74 0.68 0.61 0.58 0.58 0.64 0.72 0.77 0.79 0.82 0.86 0.89 0.93 0.93 0.92 0.94 0.96 0.96 0.96 0.96 0.96
1.19 1.15 1.11 1.10 1.07 1.05 0.97 0.91 0.89 0.88 0.88 0.89 0.88 0.87 0.86 0.81 0.75 0.74 0.72 0.72 0.71 0.72 0.73 0.74 0.72 0.65 0.61 0.57 0.57 0.60 0.64 0.71 0.80 0.86 0.92 0.95 0.95 0.95 0.94 0.94 0.94 0.96 0.97
1.11 1.13 1.12 1.13 1.13 1.13 1.11 1.07 1.06 1.02 0.95 0.94 0.93 0.94 0.94 0.92 0.88 0.85 0.81 0.77 0.73 0.69 0.69 0.70 0.72 0.71 0.68 0.66 0.67 0.72 0.73 0.70 0.68 0.68 0.70 0.71 0.74 0.82 0.87 0.88 0.89 0.89 0.91
Wind_Speed
6 6 6 7 7 8 9 8 8 6 5 5 5 5 5 6 7 7 8 8 6 5 4 5 7 8 9 9 9 11 12 12 12 12 13 15 15 16 16 19 21 23 25
6 5 6 6 7 7 7 7 7 6 5 4 4 3 5 6 6 8 7 6 6 5 6 6 6 8 9 10 9 10 12 12 11 14 13 14 15 17 18 19 21 26 26
5 4 5 5 5 5 5 6 6 6 5 4 3 2 2 4 6 7 5 4 5 6 7 7 7 9 9 9 9 9 12 13 12 14 13 15 19 19 21 22 24 26 24
4 4 4 4 5 5 5 5 6 6 5 4 4 1 1 4 6 4 2 3 4 5 6 8 8 9 9 10 10 13 14 13 14 15 15 19 18 21 24 23 22 23 23
4 4 4 3 3 5 6 5 6 7 5 5 5 2 1 4 5 4 2 2 3 5 5 8 9 9 9 11 13 16 15 15 15 15 17 20 19 21 22 25 25 20 18
5 4 3 2 2 4 5 7 8 7 6 7 5 3 2 3 4 5 3 4 5 6 7 8 8 10 12 13 14 15 15 16 17 16 18 22 22 23 25 25 23 20 20
5 4 3 3 4 5 6 7 7 7 7 7 6 4 2 2 4 3 4 5 6 8 9 9 9 10 11 13 15 16 15 16 14 18 22 22 23 25 26 24 21 25 22
7 5 3 4 5 5 6 6 7 8 7 8 7 4 2 3 4 5 5 7 8 9 10 11 11 9 10 15 18 18 18 17 20 23 25 26 28 25 25 27 26 22 23
8 5 4 5 5 5 5 5 6 8 8 9 7 5 3 3 4 6 8 10 10 11 12 12 11 14 18 20 22 21 22 22 24 27 26 28 29 30 28 26 25 25 23
8 6 6 5 5 5 4 4 6 9 9 9 7 5 4 5 6 7 8 9 10 12 13 14 16 19 22 24 27 26 27 28 29 29 29 28 27 26 26 25 24 22 20
9 7 6 5 5 5 5 4 7 10 10 10 8 7 6 6 6 8 9 10 11 14 14 16 18 19 23 25 26 26 27 27 27 27 26 26 25 25 24 22 20 19 18
10 9 7 6 6 5 5 5 7 10 9 10 9 8 7 6 7 8 8 10 11 14 15 16 18 20 22 24 23 24 24 25 24 24 24 24 24 22 21 19 18 17 15
10 9 8 7 6 6 6 6 7 8 9 11 10 8 8 8 8 9 9 10 12 13 15 16 19 20 21 21 21 21 22 22 22 23 23 21 20 20 19 17 16 15 13
10 9 8 8 6 6 6 7 7 8 9 11 11 9 9 8 8 9 9 10 12 14 17 18 18 19 19 19 19 20 20 21 21 22 21 19 19 18 17 15 14 12 10
10 9 9 9 7 7 7 8 8 9 10 10 10 10 9 8 9 10 11 13 14 16 18 17 17 18 19 19 19 19 20 20 20 19 18 17 17 16 14 13 12 10 9
10 10 10 9 8 7 8 9 9 9 10 10 10 10 10 10 11 12 14 15 16 16 15 15 16 17 18 19 18 18 18 19 18 18 17 17 16 14 13 12 11 10 9
11 11 11 10 9 9 8 9 9 9 10 10 11 11 12 13 14 14 15 16 16 15 14 14 15 16 16 17 17 17 17 18 17 17 17 16 15 14 12 12 12 11 10
12 13 12 11 10 9 8 8 9 9 9 9 10 10 11 12 13 13 14 14 14 12 12 12 13 14 14 16 17 16 16 16 17 17 16 16 16 15 14 13 13 13 13
14 13 13 12 11 10 9 9 9 8 8 8 9 9 9 10 11 11 12 11 12 12 11 12 12 13 13 14 16 16 16 16 16 16 15 15 16 16 16 15 15 16 16
15 16 14 14 12 11 11 10 10 9 9 8 8 8 9 9 9 10 10 10 11 11 11 11 12 13 14 15 15 16 17 16 16 16 16 15 15 16 16 16 17 17 18
17 16 16 15 14 14 13 12 11 11 11 11 11 11 11 10 10 10 10 11 11 11 12 13 13 13 15 15 16 17 17 17 17 17 17 17 17 17 18 19 20 21 21
15 17 18 17 15 15 14 14 13 13 13 13 13 14 14 14 13 13 13 14 14 14 14 14 15 16 17 17 18 19 19 20 19 20 20 20 20 21 21 22 22 23 24
13 14 16 17 18 17 17 16 15 15 15 15 15 15 16 17 18 17 17 17 17 18 18 18 18 19 19 20 21 22 22 23 23 23 23 23 23 23 23 23 24 25 25
15 14 14 15 17 18 18 19 19 18 18 17 17 17 18 19 20 20 21 21 21 21 22 22 23 23 23 23 24 25 26 26 26 26 26 26 26 26 26 26 27 27 28
17 17 17 17 16 17 18 20 20 21 21 21 20 20 20 20 21 21 22 23 24 24 25 25 26 26 27 27 27 28 29 30 30 30 29 30 30 30 30 30 30 30 31
19 19 19 18 19 19 19 19 20 21 23 23 23 23 23 23 23 23 24 24 25 26 27 28 28 29 29 29 29 29 29 30 31 32 33 33 33 33 33 34 33 33 33
Wind_Direction
208 219 219 228 232 242 242 244 245 242 247 244 239 244 256 273 288 293 292 279 264 245 224 208 200 197 196 198 191 190 193 189 188 192 192 188 189 187 186 182 182 179 177
210 216 226 233 243 235 233 234 225 228 236 237 227 242 276 285 293 296 296 268 248 230 215 194 188 186 184 182 188 191 188 191 190 180 180 180 172 172 170 168 169 164 163
204 218 229 229 216 218 218 217 218 213 215 210 214 248 279 309 314 310 293 254 230 216 207 197 188 179 179 180 176 175 168 166 167 171 169 167 165 163 157 153 149 159 165
210 220 209 205 211 215 216 215 213 201 200 199 183 180 320 337 338 338 318 235 205 200 201 193 189 186 188 187 177 171 163 160 157 157 156 156 160 160 157 155 154 156 155
193 196 199 207 225 217 208 211 192 188 188 178 171 155 36 16 23 35 65 93 172 173 167 171 176 173 168 165 163 163 164 160 157 158 160 159 159 160 157 160 156 160 162
180 181 190 203 213 192 188 180 177 178 175 171 169 153 64 48 33 36 77 97 105 140 146 143 153 162 159 156 154 157 162 162 160 161 162 159 157 156 158 155 156 162 156
180 173 170 170 159 159 161 167 175 177 171 173 173 158 103 50 35 64 86 109 116 121 129 139 144 154 165 173 168 158 157 158 161 159 157 159 159 154 157 156 157 150 151
169 161 149 150 153 154 160 164 171 176 175 172 169 157 116 83 56 92 91 118 116 123 118 127 128 138 153 156 159 160 154 148 141 142 143 145 149 150 149 147 146 147 147
163 156 146 151 143 151 157 170 177 176 173 172 169 160 129 97 88 106 105 109 121 122 121 119 113 119 131 134 138 140 142 142 141 140 138 139 141 143 143 145 144 144 146
162 154 137 134 138 148 158 165 173 170 171 170 168 161 136 121 112 114 114 112 122 130 124 121 119 119 125 128 131 130 129 132 135 137 137 139 141 144 146 146 145 146 147
163 151 142 129 123 127 137 144 163 169 167 168 166 153 141 131 128 128 121 117 121 134 132 128 130 126 128 129 131 132 135 137 138 139 140 143 144 145 147 149 150 150 149
162 153 145 131 114 114 121 125 142 160 166 169 166 158 152 143 135 137 132 126 129 135 136 137 138 137 136 137 135 136 138 141 142 145 145 146 147 149 151 153 155 157 155
162 158 153 137 120 114 115 121 130 152 164 167 166 161 162 148 146 144 142 137 138 141 145 144 146 146 145 144 146 144 146 146 148 148 149 149 151 153 154 155 157 161 166
166 160 160 150 129 122 115 115 128 135 142 153 161 159 154 154 153 153 151 148 143 141 146 145 147 152 152 153 154 154 152 153 152 154 153 154 155 158 161 162 166 170 176
168 164 160 155 142 129 118 125 123 128 135 144 153 157 158 157 157 154 150 148 148 146 147 149 151 155 158 158 158 160 162 162 161 162 163 164 166 168 171 175 180 186 196
168 167 162 155 148 137 126 128 125 121 126 129 139 145 148 147 146 146 145 145 144 146 150 154 156 159 162 164 163 166 169 172 173 175 175 175 177 181 187 193 200 206 210
172 172 169 164 156 146 137 133 135 126 123 129 129 133 133 138 140 141 143 145 147 145 145 150 158 163 167 172 174 176 178 182 183 185 187 189 193 197 203 211 215 219 226
180 178 176 175 171 165 157 149 142 138 133 133 137 137 139 140 146 147 149 152 157 159 160 160 162 167 174 179 182 183 184 186 189 194 199 205 210 215 221 223 226 232 241
190 187 187 185 183 181 177 173 169 163 155 146 146 146 147 145 153 159 166 169 172 175 177 179 181 182 182 183 186 189 191 194 198 203 208 213 219 223 229 233 239 245 252
201 200 197 197 196 194 193 192 190 189 186 180 176 172 168 165 168 172 178 182 187 192 195 197 198 199 198 198 199 201 204 207 210 213 217 222 226 229 235 241 247 253 259
207 206 206 205 206 206 205 204 205 204 205 205 206 204 201 198 199 199 200 203 205 208 210 212 211 210 211 211 212 213 214 217 220 224 228 232 236 241 246 252 256 259 264
209 210 212 213 214 214 215 216 215 216 217 219 222 222 222 224 224 225 225 227 227 227 226 226 225 225 225 224 224 224 226 229 232 235 239 243 247 252 255 258 260 264 268
212 213 215 219 222 223 224 225 226 228 228 229 231 231 232 234 235 236 237 238 238 237 236 236 235 235 235 235 236 236 237 238 240 242 245 248 252 255 258 261 263 266 269
219 220 222 225 227 228 230 233 235 236 237 239 239 239 240 241 241 242 243 244 244 244 244 243 243 242 242 242 243 244 244 245 246 247 249 252 255 258 261 263 266 268 270
232 232 232 233 235 237 238 238 239 241 242 244 246 246 247 247 247 247 248 248 248 248 248 248 248 248 247 247 249 249 249 248 249 251 253 256 259 261 264 267 269 270 271
238 240 240 240 241 243 244 245 246 246 247 248 249 250 251 251 252 253 253 253 253 252 252 251 251 250 249 251 252 252 252 252 253 254 257 260 262 264 266 268 269 270 272